Weather History for Los Angeles Downtown, CA

Change the Weather History Date:

Thursday, June 20, 2013

  Actual Average Record
Temperature  
Mean Temperature 69 °F 70 °F  
Max Temperature 78 °F 79 °F 106 °F (1973)
Min Temperature 60 °F 61 °F 48 °F (1881)
Degree Days  
Heating Degree Days 0 0  
Month to date heating degree days 0 6  
Since 1 June heating degree days 0 6  
Since 1 July heating degree days 918 1082  
Cooling Degree Days 4 5  
Month to date cooling degree days 78 75  
Year to date cooling degree days 236 229  
Since 1 June cooling degree days 78 75  
Growing Degree Days 20 (Base 50)    
Moisture  
Dew Point 55 °F    
Average Humidity 60    
Maximum Humidity 84    
Minimum Humidity 36    
Precipitation  
Precipitation 0.00 in 0.00 in 0.05 in (1884)
Month to date precipitation 0.00 0.08  
Year to date precipitation 2.63 10.60  
Since 1 July precipitation 5.85 14.92  
Sea Level Pressure  
Sea Level Pressure 29.83 in    
Wind  
Wind Speed 2 mph (West)    
Max Wind Speed 10 mph    
Max Gust Speed 15 mph    
Visibility 10 miles    
Events      
T = Trace of Precipitation, MM = Missing Value Source: NWS Daily Summary

Daily Weather History Graph

Daily Weather History Graph

Search for Another Location

Airport:

Trip Planner

Search our weather history database for the weather conditions in past years. The results will help you decide how hot, cold, wet, or windy it might be!

Date:

Astronomy

Jun. 20, 2013 Rise Set
Actual Time 5:42 AM PDT 8:07 PM PDT
Civil Twilight 5:12 AM PDT 8:36 PM PDT
Nautical Twilight 4:36 AM PDT 9:12 PM PDT
Astronomical Twilight 3:57 AM PDT 9:52 PM PDT
Moon 5:19 PM PDT 3:06 AM PDT
Length of Visible Light 15h 23m
Length of Day
14h 25m
Waxing Gibbous, 89% of the Moon is Illuminated
Jun 20
Waxing Gibbous
Jun 23
Full
Jun 29
Last Quarter
Jul 8
New
Jul 15
First Quarter

Hourly Weather History & Observations

Time (PDT) Temp. Dew Point Humidity Pressure Visibility Wind Dir Wind Speed Gust Speed Precip Events Conditions
12:47 AM 64.9 °F 55.0 °F 70% 29.81 in 10.0 mi Calm Calm - N/A   Clear
1:47 AM 64.0 °F 55.9 °F 75% 29.81 in 10.0 mi Calm Calm - N/A   Clear
2:47 AM 63.0 °F 57.0 °F 81% 29.80 in 10.0 mi Calm Calm - N/A   Clear
3:47 AM 63.0 °F 55.9 °F 78% 29.80 in 10.0 mi Calm Calm - N/A   Clear
4:47 AM 61.0 °F 55.0 °F 81% 29.80 in 10.0 mi Calm Calm - N/A   Clear
5:47 AM 61.0 °F 55.0 °F 81% 29.81 in 10.0 mi Calm Calm - N/A   Clear
6:47 AM 64.0 °F 55.9 °F 75% 29.82 in 10.0 mi Calm Calm - N/A   Clear
6:59 AM 64.4 °F 57.2 °F 77% 29.83 in 8.0 mi Calm Calm - N/A   Partly Cloudy
7:18 AM 64.4 °F 59.0 °F 83% 29.84 in 8.0 mi Calm Calm - N/A   Mostly Cloudy
7:43 AM 66.2 °F 59.0 °F 78% 29.84 in 8.0 mi Calm Calm - N/A   Scattered Clouds
7:47 AM 66.0 °F 57.9 °F 75% 29.84 in 8.0 mi Calm Calm - N/A   Scattered Clouds
8:18 AM 66.2 °F 57.2 °F 73% 29.85 in 8.0 mi Calm Calm - N/A   Mostly Cloudy
8:22 AM 66.2 °F 57.2 °F 73% 29.85 in 8.0 mi Calm Calm - N/A   Scattered Clouds
8:47 AM 69.1 °F 57.9 °F 68% 29.85 in 9.0 mi Calm Calm - N/A   Clear
9:47 AM 73.0 °F 55.9 °F 55% 29.85 in 10.0 mi Calm Calm - N/A   Clear
10:47 AM 77.0 °F 55.0 °F 47% 29.84 in 10.0 mi West 4.6 mph - N/A   Clear
11:47 AM 78.1 °F 57.9 °F 50% 29.84 in 10.0 mi Variable 3.5 mph - N/A   Clear
12:47 PM 78.1 °F 57.9 °F 50% 29.83 in 10.0 mi Variable 4.6 mph - N/A   Clear
1:47 PM 77.0 °F 57.9 °F 52% 29.83 in 10.0 mi Variable 3.5 mph - N/A   Clear
2:47 PM 77.0 °F 57.0 °F 50% 29.82 in 10.0 mi West 5.8 mph - N/A   Clear
3:47 PM 77.0 °F 55.9 °F 48% 29.82 in 10.0 mi West 8.1 mph - N/A   Clear
4:47 PM 77.0 °F 52.0 °F 42% 29.81 in 10.0 mi West 4.6 mph - N/A   Clear
5:47 PM 77.0 °F 48.0 °F 36% 29.81 in 10.0 mi West 5.8 mph - N/A   Clear
6:47 PM 73.9 °F 48.9 °F 41% 29.80 in 10.0 mi Variable 3.5 mph - N/A   Clear
7:47 PM 72.0 °F 52.0 °F 49% 29.81 in 10.0 mi Variable 3.5 mph - N/A   Clear
8:47 PM 70.0 °F 50.0 °F 49% 29.82 in 10.0 mi Calm Calm - N/A   Clear
9:47 PM 68.0 °F 52.0 °F 56% 29.83 in 10.0 mi Calm Calm - N/A   Clear
10:47 PM 66.9 °F 55.0 °F 66% 29.84 in 10.0 mi Calm Calm - N/A   Clear
11:47 PM 66.0 °F 57.0 °F 73% 29.84 in 10.0 mi Calm Calm - N/A   Clear